[[{"header":{"parameterUnit":"m.s-1","parameterCategory":1,"la1":30.2991,"la2":30.254,"lo1":-89.0895,"lo2":-89.0444,"dy":0.0017,"dx":0.0017,"nx":28,"ny":28,"refTime":"2025-08-13T03:00:00:Z","depth":0,"parameterNumber":2,"parameterNumberName":"U-component_of_WINDS"},"data":[0,0,0,0,0,0,0,0,0,0,0,0,0,0,0,0,0,0,0,0,0,0,0,0,0,0,0,0,0,0,0,0,0,0,0,0,0,0,0,0,0,0,0,0,0,0,0,0,0,0,0,0,0,0,0,0,0,0,1.6929,1.693,0,1.7048,1.7049,1.705,1.7086,1.7086,1.7085,1.7085,1.7205,1.7209,1.7213,0,0,0,0,0,0,0,0,0,0,0,0,0,1.6731,1.6734,1.6928,1.693,1.6931,1.7047,1.7049,1.7051,1.7087,1.7086,1.7085,1.7084,1.7204,1.7209,1.7213,0,0,0,0,0,0,0,0,0,0,0,0,0,1.683,1.6735,1.6928,1.6963,1.6968,1.7047,1.7049,1.7051,1.7087,1.7086,1.7085,1.7084,1.7203,1.7208,1.7214,1.7266,0,0,1.7231,1.7233,0,0,0,0,0,0,0,0,1.6824,1.6837,1.6957,1.6961,1.6966,1.7051,1.7023,1.7123,1.7087,1.7042,1.7085,1.7084,1.7155,1.7164,1.7188,1.7272,1.7277,1.7231,1.7235,1.7237,1.7239,0,0,0,0,0,0,0,1.6817,1.6832,1.6976,1.6958,1.6964,1.6973,1.6986,1.7042,1.7102,1.7045,1.7048,1.7062,1.7157,1.7183,1.7192,1.7279,1.7231,1.7236,1.724,1.7242,1.7409,1.7411,0,0,0,0,0,0,1.6804,1.6826,1.6972,1.6979,1.6891,1.6977,1.6992,1.7025,1.7101,1.7112,1.7063,1.7063,1.7174,1.7185,1.7196,1.7261,1.7237,1.7242,1.7246,1.7408,1.741,1.7411,0,0,0,0,0,0,1.68,1.6817,1.6967,1.6903,1.6923,1.6981,1.7018,1.7028,1.7054,1.7114,1.7125,1.7078,1.7173,1.7188,1.7248,1.7266,1.7245,1.725,1.7407,1.7409,1.741,1.7393,0,0,0,0,0,0,1.6794,1.6815,1.6836,1.6904,1.6926,1.7018,1.7019,1.7031,1.7063,1.7065,1.7132,1.7142,1.7174,1.7239,1.7254,1.7273,1.7254,1.7406,1.7408,1.741,1.7392,1.7394,1.7395,0,0,0,0,0,1.6787,1.6827,1.6837,1.6855,1.6954,1.7019,1.7032,1.7068,1.7065,1.7086,1.7124,1.714,1.7262,1.7245,1.7262,1.7283,1.7405,1.7407,1.741,1.7391,1.7393,1.7395,0,0,0,0,0,0,1.6759,1.6836,1.6849,1.6911,1.6958,1.7025,1.7052,1.7069,1.7118,1.7118,1.7161,1.7175,1.7232,1.7264,1.7244,1.7337,1.7334,1.734,1.7314,1.7317,1.7318,1.7309,1.7259,0,0,0,0,0,1.6761,1.6807,1.6872,1.6921,1.6944,1.6994,1.7023,1.7048,1.7098,1.7118,1.7161,1.7209,1.7258,1.7289,1.7338,1.7397,1.7411,1.742,1.7421,1.7422,1.7426,1.7459,1.7463,1.7419,1.7419,1.7419,0,0,1.6764,1.6811,1.6838,1.6916,1.6956,1.7002,1.701,1.706,1.7094,1.7125,1.7184,1.7218,1.7274,1.7333,1.7362,1.7361,1.7442,1.7425,1.7426,1.7429,1.7462,1.7466,1.747,1.742,1.742,1.742,0,0,1.6793,1.6834,1.6879,1.6918,1.6977,1.701,1.7021,1.7085,1.7108,1.7168,1.7192,1.7234,1.7318,1.7357,1.7387,1.743,1.7445,1.7445,1.7452,1.7483,1.7487,1.749,1.7504,1.7509,1.7449,1.7449,1.7449,0,1.6788,1.686,1.6899,1.6947,1.6981,1.7011,1.7056,1.7092,1.7164,1.7186,1.7185,1.729,1.733,1.7399,1.7409,1.7433,1.7446,1.7437,1.7483,1.7487,1.7491,1.7505,1.751,1.7448,1.7448,1.7448,1.7449,0,1.6852,1.6901,1.693,1.6999,1.7036,1.7082,1.7127,1.716,1.718,1.7213,1.7274,1.7323,1.7381,1.7399,1.742,1.7471,1.7469,1.7475,1.7472,1.7494,1.7507,1.7513,1.7448,1.7448,1.7448,1.7448,0,0,1.6866,1.6956,1.6966,1.6997,1.7065,1.7103,1.7151,1.7208,1.7234,1.7283,1.7323,1.7393,1.7399,1.7434,1.7459,1.7487,1.7516,1.749,1.7492,1.7492,1.7573,1.7567,1.7573,1.7527,1.7528,1.7529,1.7568,0,1.6903,1.6989,1.7026,1.7095,1.714,1.7169,1.721,1.7256,1.7288,1.733,1.7365,1.7414,1.7419,1.744,1.7468,1.7506,1.7533,1.7504,1.7564,1.7565,1.7548,1.7581,1.7575,1.7609,1.7574,1.7575,1.7576,0,1.6958,1.7006,1.708,1.7141,1.7162,1.7198,1.7253,1.7294,1.7346,1.7367,1.7405,1.7429,1.7479,1.7473,1.7542,1.7521,1.7548,1.757,1.7573,1.7579,1.7571,1.7587,1.7621,1.7626,1.7585,1.7584,1.7583,0,1.6959,1.7044,1.7098,1.7124,1.7197,1.7222,1.7253,1.7304,1.7336,1.7385,1.7405,1.7459,1.7487,1.7528,1.7565,1.7558,1.763,1.7628,1.7648,1.7647,1.7661,1.766,1.7699,1.768,1.768,1.768,1.7679,0,1.6996,1.704,1.71,1.7134,1.7183,1.7224,1.7271,1.7305,1.735,1.739,1.7418,1.7455,1.7503,1.7545,1.7575,1.7626,1.7639,1.7657,1.7664,1.7654,1.7652,1.7672,1.767,1.7681,1.7681,1.768,1.768,0,1.7006,1.7049,1.711,1.7174,1.7191,1.7225,1.7279,1.7312,1.7346,1.7396,1.741,1.7461,1.7513,1.7554,1.7622,1.7642,1.7695,1.7704,1.7678,1.7681,1.7699,1.7696,1.7752,1.7761,1.7736,1.7736,1.7736,0,1.7026,1.7061,1.7128,1.7157,1.7189,1.7235,1.7268,1.7309,1.7342,1.7403,1.7428,1.7482,1.7527,1.7608,1.7651,1.7702,1.7712,1.7728,1.772,1.7708,1.7711,1.7708,1.7711,1.7728,1.7728,1.7729,1.7729,0,1.7057,1.7077,1.7123,1.7177,1.7215,1.7259,1.7304,1.7326,1.7375,1.741,1.7463,1.7498,1.7567,1.7619,1.7675,1.7707,1.7726,1.7731,1.7738,1.7728,1.7711,1.7719,1.7679,1.7729,1.7729,1.7729,1.7729,1.7729,1.7073,1.7104,1.7156,1.7207,1.7245,1.7286,1.732,1.7357,1.7402,1.7462,1.7483,1.7537,1.7587,1.7664,1.7696,1.7739,1.7741,1.7751,1.7754,1.7756,1.7754,1.7704,1.7749,1.7749,1.7749,1.7749,1.7749,0,1.7104,1.7139,1.7185,1.7247,1.7286,1.7301,1.7351,1.7383,1.743,1.7476,1.7519,1.758,1.7631,1.7678,1.7731,1.7756,1.7765,1.7768,1.7766,1.7773,1.775,1.7738,1.7759,1.7759,1.7759,1.7759,1.7759,1.7759,1.7125,1.7179,1.7204,1.7276,1.7311,1.7364,1.7392,1.7429,1.7465,1.7532,1.7574,1.7605,1.7651,1.7707,1.7754,1.7766,1.7784,1.7784,1.7799,1.7776,1.7775,1.7773,1.7762,1.7788,1.7788,1.7818,1.7819,1.7819]},{"header":{"parameterUnit":"m.s-1","parameterCategory":1,"la1":30.2991,"la2":30.254,"lo1":-89.0895,"lo2":-89.0444,"dy":0.0017,"dx":0.0017,"nx":28,"ny":28,"refTime":"2025-08-13T03:00:00:Z","depth":0,"parameterNumber":3,"parameterNumberName":"V-component_of_WINDS"},"data":[0,0,0,0,0,0,0,0,0,0,0,0,0,0,0,0,0,0,0,0,0,0,0,0,0,0,0,0,0,0,0,0,0,0,0,0,0,0,0,0,0,0,0,0,0,0,0,0,0,0,0,0,0,0,0,0,0,0,4.3403,4.3403,0,4.3458,4.3458,4.3459,4.3421,4.3419,4.3418,4.3416,4.3466,4.3469,4.3472,0,0,0,0,0,0,0,0,0,0,0,0,0,4.3259,4.3262,4.3403,4.3403,4.3404,4.3458,4.3458,4.3459,4.3421,4.3419,4.3417,4.3415,4.3465,4.3469,4.3472,0,0,0,0,0,0,0,0,0,0,0,0,0,4.3318,4.3263,4.3403,4.3392,4.3391,4.3457,4.3458,4.3459,4.3422,4.3419,4.3417,4.3414,4.3464,4.3469,4.3473,4.3551,0,0,4.3486,4.3488,0,0,0,0,0,0,0,0,4.3315,4.3324,4.3393,4.3393,4.3392,4.343,4.3426,4.349,4.3422,4.341,4.3416,4.3413,4.3456,4.3461,4.3477,4.3553,4.3555,4.3487,4.3489,4.3491,4.3492,0,0,0,0,0,0,0,4.3311,4.3321,4.3424,4.3394,4.3394,4.3382,4.3388,4.3438,4.3446,4.3411,4.3408,4.3416,4.3455,4.3472,4.3477,4.3556,4.3487,4.349,4.3493,4.3495,4.3697,4.37,0,0,0,0,0,0,4.3309,4.3318,4.3422,4.3426,4.3347,4.3387,4.3393,4.342,4.3446,4.3447,4.3418,4.3414,4.3466,4.3472,4.3479,4.3571,4.3491,4.3495,4.3498,4.3695,4.3698,4.3701,0,0,0,0,0,0,4.3306,4.3318,4.342,4.3371,4.3383,4.3392,4.3423,4.3423,4.344,4.3451,4.3452,4.3434,4.3464,4.3473,4.3533,4.3572,4.3497,4.3501,4.3691,4.3696,4.3699,4.3756,0,0,0,0,0,0,4.3302,4.3318,4.3349,4.3372,4.3386,4.3476,4.3425,4.3426,4.3448,4.3443,4.3467,4.3468,4.3463,4.3527,4.3538,4.3577,4.3505,4.3688,4.3693,4.3698,4.3751,4.3761,4.3771,0,0,0,0,0,4.3297,4.3361,4.335,4.3363,4.3426,4.3478,4.3486,4.348,4.3452,4.3482,4.3489,4.3467,4.3566,4.3533,4.3545,4.3586,4.3685,4.3692,4.3698,4.3746,4.3759,4.3771,0,0,0,0,0,0,4.334,4.3364,4.3352,4.3427,4.3451,4.3471,4.3509,4.3495,4.3526,4.352,4.351,4.3516,4.3579,4.3589,4.3551,4.3662,4.3621,4.363,4.3654,4.3666,4.3676,4.3672,4.3508,0,0,0,0,0,4.3358,4.3401,4.3419,4.3483,4.3496,4.3501,4.3523,4.3517,4.3541,4.355,4.3562,4.3584,4.362,4.3644,4.3677,4.3752,4.3755,4.3786,4.3796,4.3804,4.3812,4.3851,4.3864,4.3721,4.3721,4.3721,0,0,4.3396,4.3415,4.3442,4.3492,4.351,4.3552,4.3509,4.3556,4.3586,4.3557,4.3615,4.3624,4.3648,4.3715,4.3746,4.3725,4.3852,4.3812,4.3819,4.3822,4.3858,4.3872,4.3884,4.3725,4.3725,4.3724,0,0,4.3487,4.3506,4.3561,4.358,4.3609,4.3611,4.3625,4.3648,4.3653,4.3712,4.369,4.3725,4.3788,4.3806,4.3823,4.3921,4.3901,4.3932,4.3984,4.4022,4.4033,4.4043,4.4077,4.409,4.3939,4.3939,4.3939,0,4.353,4.3595,4.359,4.3639,4.3661,4.3638,4.3693,4.3711,4.3748,4.3762,4.374,4.3818,4.3832,4.3903,4.3927,4.3942,4.3955,4.3929,4.4033,4.4042,4.4052,4.4084,4.4096,4.3943,4.3942,4.3942,4.3942,0,4.3646,4.3691,4.3731,4.377,4.3797,4.3848,4.3849,4.3876,4.3868,4.3873,4.3932,4.3949,4.3985,4.4002,4.3994,4.4071,4.4058,4.4034,4.3992,4.4069,4.4099,4.4111,4.3948,4.3947,4.3946,4.3945,0,0,4.3764,4.3801,4.3816,4.3833,4.3862,4.3896,4.3945,4.3983,4.4006,4.4032,4.4072,4.4126,4.4104,4.4124,4.4117,4.4151,4.4226,4.4122,4.4123,4.414,4.4311,4.4329,4.4343,4.4213,4.4216,4.4218,4.4309,0,4.3856,4.3945,4.3942,4.4024,4.4065,4.4043,4.4086,4.4108,4.4114,4.4147,4.4152,4.4191,4.416,4.4171,4.4204,4.421,4.426,4.4203,4.4249,4.425,4.4243,4.4359,4.4377,4.4463,4.4321,4.4323,4.4324,0,4.3975,4.4008,4.4094,4.4117,4.4134,4.4173,4.4207,4.424,4.4264,4.4265,4.4288,4.4276,4.4323,4.4281,4.4346,4.4308,4.4326,4.4332,4.4335,4.4339,4.4291,4.4364,4.449,4.4503,4.4343,4.4341,4.434,0,4.4052,4.4117,4.4177,4.4192,4.4221,4.4249,4.4262,4.4283,4.4306,4.4335,4.4349,4.4383,4.4401,4.4426,4.4423,4.4392,4.4488,4.4446,4.449,4.449,4.451,4.4509,4.464,4.4523,4.4523,4.4523,4.4523,0,4.4155,4.4208,4.4212,4.4249,4.4308,4.4303,4.4361,4.437,4.4389,4.4426,4.4409,4.4443,4.4437,4.4471,4.4468,4.4522,4.453,4.4532,4.453,4.4533,4.4533,4.4544,4.4538,4.4526,4.4526,4.4525,4.4524,0,4.425,4.4256,4.4319,4.4342,4.4349,4.4391,4.4409,4.4443,4.4448,4.4494,4.4505,4.4511,4.455,4.455,4.4593,4.4591,4.4657,4.4649,4.465,4.4648,4.4691,4.4687,4.4834,4.4852,4.4724,4.4726,4.4727,0,4.4315,4.4356,4.4384,4.4408,4.4423,4.4463,4.4486,4.4483,4.4508,4.4538,4.4567,4.4605,4.4635,4.4698,4.4705,4.4738,4.473,4.4779,4.4735,4.4736,4.473,4.4728,4.4731,4.4788,4.4789,4.479,4.4791,0,4.4429,4.443,4.4466,4.4503,4.4532,4.456,4.4586,4.4606,4.4605,4.4634,4.4675,4.4698,4.4743,4.478,4.4812,4.4823,4.4807,4.4806,4.4817,4.482,4.4819,4.4819,4.4673,4.4802,4.4801,4.48,4.48,4.4799,4.4511,4.4546,4.4571,4.4611,4.4631,4.4656,4.4689,4.4698,4.4733,4.4771,4.4766,4.4811,4.4832,4.4874,4.4887,4.4921,4.4904,4.4921,4.4925,4.4929,4.4934,4.4814,4.4927,4.4927,4.4926,4.4926,4.4926,0,4.4623,4.4639,4.4676,4.4714,4.4745,4.4729,4.4757,4.4783,4.4824,4.4846,4.4877,4.4923,4.4958,4.4969,4.5003,4.5028,4.5021,4.5037,4.5034,4.5037,4.4948,4.4934,4.5042,4.5042,4.5042,4.5042,4.5042,4.5042,4.4686,4.4744,4.4748,4.4815,4.483,4.4875,4.4892,4.4914,4.4932,4.4985,4.5016,4.5023,4.504,4.5075,4.5107,4.5108,4.5121,4.514,4.5139,4.5055,4.5043,4.5032,4.5019,4.5143,4.5143,4.5225,4.5226,4.5227]}]]